This demonstration page uses our WeatherBlox Daily Observations layout. Learn more.

Left ArrowRight Arrow

Hourly Observations for May 27, 2021

Temp ( °F °C ) Dew Point ( °F °C ) Humidity (%) Winds ( mph kmh ) Pressure ( in mb ) Visibility ( mi km ) Precip ( " mm )
12:53 am 00:53 Cloudy 46 7.8 42 5.6 86 86 ENE 6 9 30.16 1022 10 16 0.00 0.00
1:53 am 01:53 Partly Cloudy 42 5.6 40 4.4 92 92 ENE 6 9 30.16 1021 10 16 0.00 0.00
2:53 am 02:53 Clear 41 5 39 3.9 93 93 E 8 13 30.15 1021 10 16 0.00 0.00
3:53 am 03:53 Clear 39 3.9 37 2.8 93 93 ENE 8 13 30.14 1021 10 16 0.00 0.00
4:53 am 04:53 Clear 37 2.8 36 2.2 96 96 ENE 8 13 30.13 1020 10 16 0.00 0.00
5:53 am 05:53 Sunny 36 2.2 35 1.7 97 97 ENE 7 11 30.12 1020 8 13 0.00 0.00
6:53 am 06:53 Sunny 40 4.4 38 3.3 93 93 Calm 30.11 1020 10 16 0.00 0.00
7:53 am 07:53 Sunny 44 6.7 40 4.4 85 85 Calm 30.11 1020 10 16 0.00 0.00
8:53 am 08:53 Sunny 50 10 42 5.6 74 74 VRB 3 6 30.09 1019 10 16 0.00 0.00
9:53 am 09:53 Sunny 57 13.9 44 6.7 62 62 E 7 11 30.05 1018 10 16 0.00 0.00
10:53 am 10:53 Sunny 62 16.7 44 6.7 52 52 Calm 30.02 1017 10 16 0.00 0.00
11:53 am 11:53 Sunny 63 17.2 45 7.2 52 52 Calm 30.00 1016 10 16 0.00 0.00
12:53 pm 12:53 Sunny 66 18.9 46 7.8 49 49 WNW 3 6 29.97 1015 10 16 0.00 0.00
1:53 pm 13:53 Mostly Sunny 68 20 46 7.8 45 45 VRB 6 9 29.95 1014 10 16 0.00 0.00
2:53 pm 14:53 Sunny 71 21.7 38 3.3 30 30 S 12 19 29.91 1013 10 16 0.00 0.00
3:53 pm 15:53 Sunny 71 21.7 41 5 34 34 SW 7 11 29.90 1012 10 16 0.00 0.00
4:53 pm 16:53 Sunny 73 22.8 41 5 32 32 SSW 7 11 29.87 1012 10 16 0.00 0.00
5:53 pm 17:53 Sunny 72 22.2 45 7.2 38 38 S 14 22 29.85 1011 10 16 0.00 0.00
6:53 pm 18:53 Sunny 71 21.7 47 8.3 42 42 SSE 17 28 29.83 1010 10 16 0.00 0.00
7:53 pm 19:53 Sunny 66 18.9 47 8.3 50 50 SE 20 31 29.81 1010 10 16 0.00 0.00
8:53 pm 20:53 Sunny 64 17.8 45 7.2 50 50 SSE 22 35 29.78 1009 10 16 0.00 0.00
9:53 pm 21:53 Clear 63 17.2 44 6.7 50 50 SSE 22 35 29.76 1008 10 16 0.00 0.00
10:53 pm 22:53 Clear 61 16.1 44 6.7 54 54 SSE 25 41 29.73 1007 10 16 0.00 0.00
11:53 pm 23:53 Clear 61 16.1 44 6.7 54 54 SSE 26 43 29.72 1006 10 16 0.00 0.00

Powered by AerisWeather